| time (UTC) | temp C | wind direction | speed KPH | gust KPH | rain 1hr cm | rain 24hr cm | rain mn cm | humidity % | barometer mb |
| 20260503214510 | 14 | 269 | 12.9 | 24.1 | 0.00 | 0.48 | 0.15 | 64 | 1011.8 |
| 20260503213610 | 14 | 272 | 12.9 | 24.1 | 0.00 | 0.48 | 0.15 | 64 | 1011.6 |
| 20260503212710 | 14 | 275 | 11.3 | 24.1 | 0.00 | 0.48 | 0.15 | 64 | 1011.6 |
| 20260503211810 | 14 | 285 | 12.9 | 27.4 | 0.00 | 0.48 | 0.15 | 64 | 1011.5 |
| 20260503210910 | 14 | 279 | 14.5 | 27.4 | 0.00 | 0.48 | 0.15 | 64 | 1011.4 |
| 20260503210009 | 14 | 284 | 14.5 | 24.1 | 0.00 | 0.48 | 0.15 | 64 | 1011.4 |
| 20260503203309 | 14 | 282 | 14.5 | 27.4 | 0.00 | 0.48 | 0.15 | 64 | 1011.1 |
| 20260503202410 | 14 | 290 | 14.5 | 27.4 | 0.00 | 0.48 | 0.15 | 64 | 1011.0 |
| 20260503200609 | 13 | 281 | 16.1 | 27.4 | 0.00 | 0.48 | 0.15 | 64 | 1010.7 |
| 20260503195709 | 14 | 293 | 11.3 | 24.1 | 0.00 | 0.48 | 0.15 | 64 | 1010.7 |
| 20260503194809 | 14 | 290 | 11.3 | 22.5 | 0.00 | 0.48 | 0.15 | 64 | 1010.8 |
| 20260503193909 | 14 | 289 | 11.3 | 24.1 | 0.00 | 0.48 | 0.15 | 64 | 1010.7 |
| 20260503193010 | 14 | 284 | 12.9 | 24.1 | 0.00 | 0.48 | 0.15 | 64 | 1010.7 |
| 20260503192109 | 14 | 279 | 16.1 | 32.2 | 0.00 | 0.48 | 0.15 | 64 | 1010.7 |
| 20260503191209 | 14 | 280 | 12.9 | 24.1 | 0.00 | 0.48 | 0.15 | 64 | 1010.5 |
| 20260503190309 | 14 | 274 | 16.1 | 33.8 | 0.00 | 0.48 | 0.15 | 64 | 1010.5 |
| 20260503184509 | 13 | 279 | 19.3 | 37.0 | 0.00 | 0.48 | 0.15 | 65 | 1010.4 |
| 20260503182709 | 13 | 287 | 16.1 | 29.0 | 0.00 | 0.48 | 0.15 | 65 | 1010.4 |
| 20260503181809 | 13 | 282 | 12.9 | 25.7 | 0.00 | 0.51 | 0.15 | 65 | 1010.4 |
| 20260503180909 | 13 | 283 | 16.1 | 37.0 | 0.00 | 0.51 | 0.15 | 65 | 1010.4 |
| 20260503180008 | 13 | 287 | 14.5 | 24.1 | 0.00 | 0.58 | 0.15 | 65 | 1010.4 |
| 20260503174208 | 13 | 290 | 16.1 | 29.0 | 0.00 | 0.61 | 0.15 | 65 | 1010.6 |
| 20260503173309 | 13 | 290 | 16.1 | 29.0 | 0.00 | 0.66 | 0.15 | 65 | 1010.7 |
| 20260503172409 | 13 | 291 | 16.1 | 29.0 | 0.00 | 0.66 | 0.15 | 65 | 1010.8 |
| 20260503171508 | 13 | 290 | 11.3 | 25.7 | 0.00 | 0.74 | 0.15 | 65 | 1010.8 |
| 20260503170609 | 13 | 290 | 11.3 | 24.1 | 0.00 | 0.76 | 0.15 | 65 | 1010.8 |
| 20260503150909 | 13 | 290 | 17.7 | 37.0 | 0.05 | 0.71 | 0.05 | 63 | 1011.1 |
| 20260503130308 | 13 | 297 | 16.1 | 30.6 | 0.00 | 0.69 | 0.69 | 64 | 1011.8 |
| 20260503110609 | 13 | 286 | 14.5 | 30.6 | 0.28 | 0.69 | 0.69 | 65 | 1011.6 |
| 20260503081508 | 16 | 305 | 12.9 | 27.4 | 0.00 | 0.41 | 0.41 | 56 | 1010.2 |
| 20260503071207 | 15 | 320 | 14.5 | 29.0 | 0.00 | 0.41 | 0.41 | 58 | 1010.1 |
| 20260503070307 | 15 | 323 | 14.5 | 27.4 | 0.03 | 0.41 | 0.41 | 58 | 1010.1 |
| 20260503055107 | 16 | 292 | 20.9 | 38.6 | 0.03 | 0.51 | 0.38 | 54 | 1010.0 |
| 20260503053307 | 17 | 307 | 19.3 | 33.8 | 0.00 | 0.53 | 0.36 | 47 | 1009.8 |
| 20260503052407 | 18 | 297 | 20.9 | 37.0 | 0.00 | 0.56 | 0.36 | 46 | 1009.7 |
| 20260503051507 | 18 | 306 | 20.9 | 38.6 | 0.00 | 0.56 | 0.36 | 44 | 1009.7 |
| 20260503050607 | 18 | 310 | 20.9 | 38.6 | 0.00 | 0.56 | 0.36 | 46 | 1009.5 |
| 20260503045707 | 18 | 315 | 20.9 | 38.6 | 0.00 | 0.58 | 0.36 | 45 | 1009.7 |
| 20260503043907 | 17 | 303 | 20.9 | 38.6 | 0.00 | 0.61 | 0.36 | 46 | 1009.6 |
| 20260503042107 | 18 | 307 | 17.7 | 35.4 | 0.00 | 0.71 | 0.36 | 46 | 1009.7 |
| 20260503041207 | 17 | 299 | 20.9 | 41.8 | 0.00 | 0.76 | 0.36 | 46 | 1009.8 |
| 20260503040307 | 18 | 308 | 24.1 | 41.8 | 0.00 | 0.76 | 0.36 | 45 | 1009.9 |
| 20260503033607 | 18 | 301 | 16.1 | 32.2 | 0.00 | 0.79 | 0.36 | 46 | 1010.1 |
| 20260503031807 | 18 | 304 | 19.3 | 35.4 | 0.00 | 0.79 | 0.36 | 46 | 1010.2 |
| 20260503030907 | 17 | 305 | 24.1 | 45.1 | 0.00 | 0.79 | 0.36 | 49 | 1010.3 |
| 20260503030007 | 17 | 297 | 20.9 | 38.6 | 0.00 | 0.79 | 0.36 | 50 | 1010.5 |
| 20260503025107 | 17 | 303 | 22.5 | 43.5 | 0.00 | 0.79 | 0.36 | 48 | 1010.5 |
| 20260503024206 | 17 | 298 | 20.9 | 38.6 | 0.00 | 0.79 | 0.36 | 47 | 1010.5 |
| 20260503023307 | 18 | 305 | 22.5 | 40.2 | 0.00 | 0.79 | 0.36 | 45 | 1010.6 |
| 20260503022407 | 18 | 323 | 20.9 | 38.6 | 0.00 | 0.79 | 0.36 | 50 | 1010.6 |
| 20260503021507 | 17 | 321 | 17.7 | 38.6 | 0.00 | 0.79 | 0.36 | 51 | 1010.6 |
| 20260503020607 | 16 | 326 | 20.9 | 41.8 | 0.00 | 0.79 | 0.36 | 53 | 1010.7 |
| 20260503015707 | 16 | 321 | 19.3 | 35.4 | 0.00 | 0.79 | 0.36 | 55 | 1010.7 |
| 20260503014807 | 16 | 320 | 20.9 | 40.2 | 0.00 | 0.79 | 0.36 | 52 | 1010.7 |
| 20260503013906 | 16 | 320 | 22.5 | 45.1 | 0.00 | 0.79 | 0.36 | 52 | 1010.7 |
| 20260503013007 | 17 | 316 | 20.9 | 35.4 | 0.00 | 0.79 | 0.36 | 51 | 1010.7 |
| 20260503011207 | 16 | 312 | 22.5 | 38.6 | 0.00 | 0.79 | 0.36 | 53 | 1010.8 |
| 20260503004507 | 16 | 326 | 20.9 | 37.0 | 0.00 | 0.79 | 0.36 | 55 | 1010.9 |
| 20260503003607 | 16 | 320 | 19.3 | 35.4 | 0.00 | 0.79 | 0.36 | 55 | 1010.9 |
| 20260503002707 | 16 | 322 | 16.1 | 27.4 | 0.00 | 0.79 | 0.36 | 55 | 1011.0 |
| 20260503001807 | 15 | 327 | 17.7 | 32.2 | 0.00 | 0.79 | 0.36 | 57 | 1011.2 |
| 20260503000906 | 15 | 335 | 14.5 | 27.4 | 0.00 | 0.79 | 0.36 | 56 | 1011.1 |
| 20260502234206 | 15 | 336 | 12.9 | 24.1 | 0.00 | 0.79 | 0.36 | 58 | 1011.1 |
| 20260502233306 | 15 | 339 | 12.9 | 24.1 | 0.00 | 0.79 | 0.36 | 58 | 1011.0 |
| 20260502232406 | 14 | 334 | 12.9 | 30.6 | 0.00 | 0.79 | 0.36 | 60 | 1011.2 |
| 20260502231507 | 13 | 346 | 12.9 | 24.1 | 0.00 | 0.81 | 0.36 | 62 | 1011.1 |
| 20260502230607 | 12 | 344 | 12.9 | 22.5 | 0.00 | 0.84 | 0.36 | 64 | 1011.1 |
| 20260502225706 | 12 | 344 | 12.9 | 22.5 | 0.00 | 0.84 | 0.36 | 65 | 1011.1 |
| 20260502224807 | 12 | 349 | 12.9 | 25.7 | 0.00 | 0.84 | 0.36 | 66 | 1011.1 |
| 20260502223006 | 11 | 354 | 12.9 | 25.7 | 0.00 | 0.84 | 0.36 | 67 | 1011.2 |
| 20260502222106 | 11 | 1 | 11.3 | 22.5 | 0.00 | 0.84 | 0.36 | 67 | 1010.9 |